Weather History for Vancouver, BC

Change the Weather History Date:

Friday, March 15, 2013

  Actual Average Record
Temperature  
Mean Temperature 50 °F -  
Max Temperature 54 °F 46 °F 55 °F (1998)
Min Temperature 46 °F 37 °F 32 °F (1997)
Degree Days  
Heating Degree Days 15    
Moisture  
Dew Point 42 °F    
Average Humidity 76    
Maximum Humidity 82    
Minimum Humidity 67    
Precipitation  
Precipitation 0.04 in - - ()
Sea Level Pressure  
Sea Level Pressure 30.16 in    
Wind  
Wind Speed 6 mph ()    
Max Wind Speed 10 mph    
Max Gust Speed -    
Visibility 12.9 miles    
Events Rain    
Averages and records for this station are not official NWS values.
T = Trace of Precipitation, MM = Missing Value Source: Averaged Metar Reports

Daily Weather History Graph

Daily Weather History Graph

Search for Another Location

Airport:

Trip Planner

Search our weather history database for the weather conditions in past years. The results will help you decide how hot, cold, wet, or windy it might be!

Date:

Astronomy

Mar. 15, 2013 Rise Set
Actual Time 7:25 AM PDT 7:18 PM PDT
Civil Twilight 6:53 AM PDT 7:50 PM PDT
Nautical Twilight 6:16 AM PDT 8:27 PM PDT
Astronomical Twilight 5:38 AM PDT 9:05 PM PDT
Moon 8:55 AM PDT (3/15) No Moon Set
Length of Visible Light 12h 56m
Length of Day
11h 53m
Waxing Crescent, 16% of the Moon is Illuminated
Mar 15
Waxing Crescent
Mar 19
First Quarter
Mar 27
Full
Apr 2
Last Quarter
Apr 10
New

Hourly Weather History & Observations

Time (PDT) Temp. Windchill Dew Point Humidity Pressure Visibility Wind Dir Wind Speed Gust Speed Precip Events Conditions
12:00 AM 48.2 °F - 42.8 °F 82% 30.13 in 12.0 mi ENE 6.9 mph - N/A   Overcast
1:00 AM 48.2 °F - 41.0 °F 76% 30.14 in 12.0 mi ENE 5.8 mph - N/A   Overcast
1:29 AM 48.2 °F - - N/A% - 12.0 mi ENE 4.6 mph - N/A   Overcast
2:00 AM 48.2 °F - 41.0 °F 76% 30.15 in 12.0 mi NE 4.6 mph - N/A   Overcast
3:00 AM 46.4 °F 42.4 °F 41.0 °F 81% 30.16 in 12.0 mi East 8.1 mph - N/A   Overcast
3:08 AM 46.4 °F 42.9 °F - N/A% - 12.0 mi ENE 6.9 mph - N/A   Overcast
3:33 AM 46.4 °F 42.9 °F - N/A% - 12.0 mi East 6.9 mph - N/A   Overcast
4:00 AM 46.4 °F 42.4 °F 41.0 °F 81% 30.16 in 12.0 mi East 8.1 mph - N/A   Overcast
5:00 AM 48 °F - 41 °F 70% 30.16 in 12 mi East 10.4 mph - -   Mostly Cloudy
5:00 AM 48.2 °F - 41.0 °F 76% 30.16 in 12.0 mi ESE 10.4 mph - N/A   Mostly Cloudy
6:00 AM 46.4 °F 41.9 °F 41.0 °F 81% 30.16 in 12.0 mi East 9.2 mph - N/A   Overcast
6:23 AM 46.4 °F 42.4 °F - N/A% - 12.0 mi East 8.1 mph - N/A   Overcast
7:00 AM 46.4 °F 43.5 °F 41.0 °F 81% 30.17 in 12.0 mi East 5.8 mph - N/A   Overcast
7:31 AM 46.4 °F 42.9 °F - N/A% - 10.0 mi ESE 6.9 mph - N/A   Overcast
7:55 AM 46.4 °F 43.5 °F - N/A% - 12.0 mi East 5.8 mph - N/A   Overcast
8:00 AM 46.4 °F 43.5 °F 41.0 °F 81% 30.17 in 12.0 mi East 5.8 mph - N/A   Overcast
9:00 AM 48.2 °F - 42.8 °F 82% 30.18 in 15.0 mi East 5.8 mph - N/A   Overcast
10:00 AM 50.0 °F - 42.8 °F 76% 30.19 in 15.0 mi East 8.1 mph - N/A   Overcast
11:00 AM 51 °F - 44 °F 69% 30.20 in 15 mi East 8.1 mph - -   Overcast
11:00 AM 51.8 °F - 44.6 °F 76% 30.20 in 15.0 mi East 8.1 mph - N/A   Overcast
12:00 PM 53.6 °F - 44.6 °F 72% 30.20 in 15.0 mi SE 6.9 mph - N/A   Mostly Cloudy
1:00 PM 53.6 °F - 42.8 °F 67% 30.19 in 15.0 mi SE 10.4 mph - N/A   Overcast
2:00 PM 53.6 °F - 42.8 °F 67% 30.19 in 15.0 mi SSE 6.9 mph - N/A Rain Light Rain
3:00 PM 51.8 °F - 44.6 °F 76% 30.18 in 10.0 mi SE 4.6 mph - N/A Rain Light Rain
3:51 PM 51.8 °F - - N/A% - 12.0 mi ESE 4.6 mph - N/A Rain Light Rain
4:00 PM 51.8 °F - 44.6 °F 76% 30.17 in 15.0 mi East 5.8 mph - N/A Rain Light Rain
4:55 PM 51.8 °F - - N/A% - 6.0 mi NE 5.8 mph - N/A Rain Light Rain
5:00 PM 51 °F - 44 °F 71% 30.16 in 7 mi NE 5.8 mph - - Rain Light Rain
5:00 PM 51.8 °F - 44.6 °F 76% 30.16 in 7.0 mi NE 3.5 mph - N/A Rain Light Rain
5:30 PM 51.8 °F - - N/A% - 12.0 mi East 3.5 mph - N/A Rain Light Rain
6:00 PM 51.8 °F - 44.6 °F 76% 30.15 in 15.0 mi East 5.8 mph - N/A Rain Light Rain
6:49 PM 51.8 °F - - N/A% - 15.0 mi East 6.9 mph - N/A   Overcast
7:00 PM 51.8 °F - 44.6 °F 76% 30.14 in 15.0 mi East 6.9 mph - N/A   Mostly Cloudy
8:00 PM 48.2 °F - 41.0 °F 76% 30.12 in 15.0 mi ENE 5.8 mph - N/A   Mostly Cloudy
9:00 PM 46.4 °F 45.2 °F 41.0 °F 81% 30.13 in 15.0 mi East 3.5 mph - N/A   Mostly Cloudy
10:00 PM 48.2 °F - 41.0 °F 76% 30.12 in 15.0 mi East 4.6 mph - N/A   Mostly Cloudy
10:57 PM 46.4 °F 42.9 °F - N/A% - 15.0 mi East 6.9 mph - N/A   Mostly Cloudy
11:00 PM 47 °F - 42 °F 76% 30.12 in 15 mi East 5.8 mph - -   Partly Cloudy
11:00 PM 46.4 °F 43.5 °F 41.0 °F 81% 30.12 in 15.0 mi East 5.8 mph - N/A   Mostly Cloudy
11:12 PM 48.2 °F - - N/A% - 15.0 mi East 8.1 mph - N/A   Overcast